sat.trackr.live / text

‹ back to catalog

STARLINK-1845

NORAD 47135 · 2020-088P

PAYLOAD ACTIVE UNKNOWN

§ Identity

Operator
Country
US
Launch date
2020-11-25
Launch site
AFETR
Launch vehicle
Mass (kg)
RCS (m²)

Purposes: comms

External: N2YO · Heavens-Above · Gunter

§ Orbital elements

Epoch: 2026-09-18T15:48:28.573056Z

Period
87.61 min
Inclination
53.0217°
Eccentricity
0.0008693
Mean motion
16.43600395 rev/d
Perigee alt
150.6 km
Apogee alt
161.9 km
Semi-major
6,534.4 km
B*
3.8909e-4
RAAN
34.7247°
Arg perigee
299.8526°
Mean anomaly
60.1657°
Rev number
32,260

§ Raw data

STARLINK-18451 47135U 20088P   26261.65866404  .10657769  12535-4  38909-3 0  99972 47135  53.0217  34.7247 0008693 299.8526  60.1657 16.43600395322609

JSON: /api/v1/satellites/47135 · /tle

For live sub-satellite position, see the globe view (requires WebGL).

§ Visibility from observer

Set your observer location to see the next 7 days of passes ≥ 10°. The values pass through the URL so the page stays shareable.

No JS? Fill the form by hand. The geolocation button needs JavaScript.